TimeEDT,TemperatureF,Dew PointF,Humidity,Sea Level PressureIn,VisibilityMPH,Wind Direction,Wind SpeedMPH,Gust SpeedMPH,PrecipitationIn,Events,Conditions,WindDirDegrees,DateUTC
1:53 AM,46.9,32.0,56,30.28,10.0,South,4.6,-,N/A,,Mostly Cloudy,190,2012-10-14 05:53:00
2:53 AM,46.9,33.1,59,30.25,10.0,South,4.6,-,N/A,,Overcast,170,2012-10-14 06:53:00
3:53 AM,46.9,39.0,74,30.23,10.0,South,4.6,-,0.01,Rain,Light Rain,170,2012-10-14 07:53:00
4:53 AM,46.9,41.0,80,30.21,10.0,SSE,4.6,-,0.01,,Overcast,160,2012-10-14 08:53:00
5:53 AM,48.0,43.0,83,30.19,5.0,SSE,6.9,-,0.07,Rain,Rain,160,2012-10-14 09:53:00
6:53 AM,48.0,45.0,89,30.16,8.0,SSE,9.2,-,0.14,Rain,Light Rain,160,2012-10-14 10:53:00
7:53 AM,50.0,46.9,89,30.15,5.0,South,6.9,-,0.12,Rain,Rain,170,2012-10-14 11:53:00
8:53 AM,51.1,48.0,89,30.14,3.0,SSW,6.9,-,0.14,Rain,Rain,200,2012-10-14 12:53:00
9:53 AM,53.1,48.9,86,30.11,10.0,SSW,10.4,-,0.04,,Overcast,210,2012-10-14 13:53:00
10:53 AM,54.0,50.0,86,30.09,9.0,SW,11.5,18.4,0.03,Rain,Light Rain,220,2012-10-14 14:53:00
11:53 AM,55.0,51.1,86,30.09,10.0,SW,12.7,-,0.01,,Overcast,220,2012-10-14 15:53:00
12:53 PM,55.9,52.0,87,30.06,10.0,SW,8.1,-,0.00,,Overcast,230,2012-10-14 16:53:00
1:53 PM,55.9,52.0,87,30.05,6.0,West,8.1,-,0.00,Rain,Light Rain,260,2012-10-14 17:53:00
2:53 PM,57.9,54.0,87,30.01,10.0,SW,4.6,-,0.01,,Overcast,220,2012-10-14 18:53:00
3:53 PM,62.6,55.4,77,30.00,10.0,SW,6.9,-,N/A,,Clear,220,2012-10-14 19:53:00
4:53 PM,64.9,54.0,68,29.98,10.0,SW,5.8,-,N/A,,Partly Cloudy,230,2012-10-14 20:53:00
5:53 PM,62.1,54.0,75,29.98,10.0,South,3.5,-,N/A,,Clear,180,2012-10-14 21:53:00
6:53 PM,63.0,52.0,67,29.98,10.0,SSW,8.1,-,N/A,,Clear,210,2012-10-14 22:53:00
7:53 PM,62.1,52.0,70,29.97,10.0,SSW,8.1,-,N/A,,Clear,210,2012-10-14 23:53:00
8:53 PM,61.0,52.0,72,29.97,10.0,SSW,10.4,-,N/A,,Clear,210,2012-10-15 00:53:00
9:53 PM,61.0,52.0,72,29.96,10.0,SW,9.2,18.4,N/A,,Clear,220,2012-10-15 01:53:00
10:53 PM,61.0,53.1,75,29.95,10.0,SSW,8.1,-,N/A,,Clear,210,2012-10-15 02:53:00
11:53 PM,61.0,54.0,78,29.92,10.0,South,5.8,-,N/A,,Scattered Clouds,190,2012-10-15 03:53:00